CZ-3B DEB, 42475

Orbit data source: Space-Track

CZ-3B DEB, 42475 is space debris in HEO originally from a launch on Mon, 19 Dec 2011 UTC launched from the Xichang Space Center, China (XSC). Debris objects in space refer to the collection of defunct objects orbiting the Earth. Examples of debris include non-operational satellites, rocket bodies, and fragments generated from explosions, collisions, or faulty payload assembly.

Loading next visibility...
Identifier
42475, 2011-077AQ
Orbit
HEO
Country
Flag of CNCN / PRC
Related business
Manufacturer
CALT
Mission
Spacecraft
Bus & Motor
Unknown
Mass
Unknown
Launch date (UTC)
2011-12-19 (14 years ago)
Launch vehicle
Unknown
Launch site
Xichang Space Center, China (XSC)
Object type
Payload
Rocket body
Debris
Shape & HBR
Unknown shape, 0.2 m
Radar Cross Section
Medium (>0.1 m² and <1 m²)

Expand to show TLE details & history
Last TLE update: 5 days ago

TLE from 5 days ago
0 CZ-3B DEB
1 42475U 11077AQ  26030.09565763  .00000187  00000-0  13327-1 0  9993
2 42475  26.5652 341.7446 7405739  66.4701 351.8489  1.91402947 30242
Epoch: 2026-01-30T02:17Z
TLE epoch observation values (Epoch: 2026-01-30T02:17:44.819Z)
Latitude
0.00017°
Longitude
177.97374°
Altitude
3,208.895 km
Speed
8.283 km/s
True Right ascension
22h 46m 59s
True Declination
0° 00' 01"
Sunlit
Object was in daylight at epoch
Visualization orbit readout
Latitude
Unknown
Longitude
Unknown
Altitude
Unknown
Speed
Unknown
Apparent Right ascension
Unknown
Apparent Declination
Unknown
Sunlit
N/A
Visualization observer readout
Local Sidereal Time
17:05:22
Azimuth
Unknown
Elevation
Unknown
Doppler factor
Unknown
Orbital elements
Apogee altitude
41,322.143 km
Perigee altitude
731.413 km
Semi-major axis
27,404.915 km
Eccentricity
0.74057
Inclination
26.5652°
RAAN
341.7446°
Arg. of periapsis
66.4701°
True anomaly
293.88955°
Mean anomaly
351.8489°
Eccentric anomaly
331.79349°
Mean motion
0.47841 °/min
Orbital period
752.49 mins
BSTAR
0.013327
Loading maneuver chart data...
Computing Atmospheric mass density...
Loading historical data...
Loading historical data...
Loading historical data...
Loading historical data...
Loading historical data...
Loading historical data...
Loading historical data...

Documentation

Showing up to 5 results
|